Location: Bed?ichov
(48.7167°N, 14.2000°E)
Time: 16:09:36
(UTC+00:00)

Daily predictions for brighter satellites

Satellite Brightness Start Highest point End
(mag) Time Altitude Azimuth Time Altitude Azimuth Time Altitude Azimuth
CZ-4C R/B 3.0 15:27:45 10° NW 15:34:40 62° NE 15:42:51 10° ESE
ATLAS 2AS CENTAUR R/B 4.1 15:30:21 10° WNW 15:36:40 27° N 15:42:43 10° NE
ADEOS 3.7 15:32:16 10° SSE 15:37:30 86° WSW 15:42:46 10° NNW
Cosmos 841 Rocket 4.0 15:33:02 10° S 15:37:50 41° ESE 15:42:39 10° NE
Cosmos 2034 Rocket 4.0 15:32:05 10° S 15:38:13 78° E 15:44:24 10° NNE
Cosmos 1743 Rocket 3.5 15:37:46 10° N 15:42:08 85° E 15:46:28 10° S
Cosmos 1697 Rocket 3.0 15:36:31 10° NNW 15:42:08 74° WSW 15:47:43 10° SSE
USA 307 3.5 15:38:40 10° WNW 15:42:44 42° N 15:46:47 10° E
Cosmos 372 Rocket 4.1 15:38:52 10° NNW 15:44:04 59° ENE 15:49:15 10° SE
Cosmos 2322 Rocket 3.4 15:40:02 10° N 15:44:21 21° NE 15:48:39 10° E
Meteor PRIRODA 3.6 15:41:06 10° SSE 15:44:40 58° ENE 15:48:13 10° N
CZ-4C R/B 3.1 15:41:05 10° NNE 15:44:53 88° E 15:48:28 10° SSW
ERBS 4.0 15:42:57 10° NW 15:45:20 19° N 15:47:44 10° NE
SJ 16-02 4.5 15:43:02 10° WNW 15:45:21 14° W 15:47:41 10° SW
Cosmos 1937 Rocket 3.6 15:40:06 10° NNW 15:45:29 89° ENE 15:50:48 10° SSE
USA 234 3.4 15:40:04 10° E 15:46:29 60° NNE 15:52:54 10° NW
Lacrosse 5 rocket 1.4 15:42:59 10° NW 15:46:45 50° NNE 15:50:42 10° ESE
Cosmos 1980 Rocket 2.2 15:42:40 10° NNW 15:48:21 70° ENE 15:53:57 10° SE
Cosmos 2026 Rocket 4.0 15:46:19 10° N 15:52:23 61° ENE 15:58:22 10° SSE
Cosmos 1666 Rocket 4.2 15:49:14 10° N 15:53:17 33° ENE 15:57:15 10° SE
NOSS 2-2 (D) 4.5 15:48:13 10° NW 15:53:21 86° SW 16:00:37 10° SE
Cosmos 1809 Rocket 4.4 15:48:01 10° N 15:54:07 70° ENE 16:00:10 10° SSE
Cosmos 1125 Rocket 4.5 15:50:14 10° N 15:54:36 26° NE 15:58:59 10° ESE
CORIOLIS 4.4 15:49:54 10° SE 15:55:04 48° ENE 16:00:17 10° N
Cosmos 1634 Rocket 4.2 15:49:05 10° SSE 15:55:10 52° E 16:01:17 10° NNE
Cosmos 2195 Rocket 4.5 15:50:51 10° N 15:57:02 77° E 16:03:16 10° SSE
H-2A R/B 2.7 15:54:57 10° SE 15:59:24 32° ENE 16:03:47 10° N
Cosmos 2369 3.9 15:54:14 10° NNW 15:59:59 80° WSW 16:05:42 10° SSE
Cosmos 1812 3.5 15:58:49 10° SSE 16:02:13 31° E 16:05:40 10° NNE
PSLV R/B 4.4 16:00:15 10° SE 16:03:34 31° ENE 16:06:56 10° N
ATLAS CENTAUR R/B 3.9 16:02:20 10° NW 16:04:26 13° NNW 16:06:37 10° NNE
Okean O Rocket 2.9 16:01:19 10° ESE 16:04:29 19° ENE 16:07:38 10° NNE
Cosmos 2221 4.1 16:00:54 10° SW 16:04:51 35° WNW 16:08:50 10° N
SL-16 R/B 2.9 16:00:13 10° NNW 16:05:21 33° NE 16:10:26 10° ESE
USA 308 3.3 16:01:25 10° WNW 16:05:32 45° NNE 16:09:19 12° E
CZ-2C R/B 3.1 16:01:25 10° S 16:06:14 77° WSW 16:11:01 10° NNW
Cosmos 2082 Rocket 2.3 16:03:18 10° SSW 16:08:55 65° ESE 16:14:31 10° NNE
Sich 1 2.9 16:04:43 10° N 16:09:04 81° E 16:13:23 10° SSE
Cosmos 540 Rocket 3.5 16:04:45 10° SSW 16:09:52 85° WNW 16:15:01 10° NNE
ARGOS 4.0 16:06:05 10° ESE 16:10:33 27° ENE 16:15:02 10° N
Meteor 1-5 Rocket 4.5 16:05:10 10° N 16:11:00 52° ENE 16:16:43 10° SSE
FengYun 1-2 T 4.3 16:08:24 10° SSE 16:13:59 89° ENE 16:19:33 10° NNW
COSMOS 2455 2.9 16:09:32 10° SSW 16:15:34 85° ESE 16:21:39 10° NE
SMAP 3.0 16:12:03 10° SSE 16:16:41 77° ENE 16:21:22 10° NNW
NOAA 6 4.0 16:13:03 10° SSE 16:18:11 79° ENE 16:23:20 10° NNW
deb Chang Zheng 4 4.4 16:16:46 10° ESE 16:20:27 28° ENE 16:24:09 10° N
Cosmos 1805 Rocket 4.2 16:17:16 10° NNW 16:21:33 60° W 16:25:48 10° S
Cosmos 1933 3.9 16:18:01 10° SSW 16:22:00 60° WNW 16:26:00 10° N
Cosmos 1833 Rocket 3.4 16:16:52 10° SW 16:22:22 53° NW 16:27:55 10° NNE
Cosmos 2278 3.7 16:16:43 10° NNW 16:22:29 89° ENE 16:28:10 10° SSE
Cosmos 2333 Rocket 3.7 16:20:39 10° N 16:24:26 17° NE 16:26:02 16° NE
CZ-4B DEB 4.1 16:21:51 10° SSE 16:27:20 74° ENE 16:32:49 10° NNW
CZ-2C R/B 3.3 16:25:23 10° NNE 16:29:58 31° E 16:34:32 10° SSE
USA 305 3.0 16:25:49 10° WNW 16:30:01 56° NNE 16:32:51 20° E
Cosmos 1655 Rocket 4.3 16:25:31 10° N 16:31:35 43° ENE 16:37:35 10° SE
Cosmos 1356 Rocket 4.3 16:28:50 10° N 16:32:29 28° ENE 16:36:11 10° SE
Cosmos 2219 Rocket 3.7 16:29:04 10° N 16:32:31 16° NE 16:33:20 16° NE
CZ-4B R/B 4.2 16:29:08 10° S 16:32:52 41° W 16:36:27 10° NNW
Cosmos 1500 3.9 16:31:03 10° NNW 16:34:43 56° W 16:38:21 10° S
Meteor 1-14 Rocket 4.3 16:29:10 10° N 16:35:03 84° ENE 16:41:01 10° SSE
Cosmos 44 Rocket 3.2 16:31:50 10° NW 16:36:49 89° NE 16:41:35 10° SE
Meteor 2-16 Rocket 4.4 16:33:07 10° N 16:39:16 81° E 16:45:24 10° SSE
Cosmos 1515 Rocket 4.3 16:37:33 10° SSE 16:41:28 31° E 16:43:15 23° NE
COSMOS 2406 4.0 16:36:27 10° SW 16:42:02 50° NW 16:47:37 10° NNE
Cosmos 1814 Rocket 3.9 16:37:30 10° SSW 16:42:43 87° ESE 16:47:38 12° NNE
Cosmos 921 Rocket 3.3 16:39:53 10° S 16:43:52 43° ESE 16:45:57 24° NE
Cosmos 1570 Rocket 3.9 16:44:21 10° SSW 16:49:35 87° ESE 16:54:14 13° NNE
MOS 1-B Rocket 4.1 16:45:18 10° NNE 16:51:19 65° ESE 16:58:13 10° S
CZ-4B R/B 3.0 16:48:04 10° SSE 16:53:24 67° ENE 16:58:41 10° N
USA 267 3.2 16:50:26 22° ENE 16:54:59 83° SE 17:01:33 10° SW
Cosmos 2298 Rocket 3.9 16:49:57 10° NNW 16:55:19 78° ENE 17:00:39 10° SSE
Cosmos 371 Rocket 4.3 16:51:35 10° N 16:55:07 25° NE 16:55:07 25° NE
CZ-2D R/B 3.4 16:51:58 10° S 16:55:47 76° WSW 16:59:37 10° NNW
MOS 1-B 4.3 16:52:30 10° SSE 16:58:17 87° WSW 17:04:08 10° NNW
ATLAS CENTAUR R/B 3.0 16:51:18 10° WSW 16:59:31 54° NNW 17:01:30 28° NNE
COSMO-SKYMED 1 2.7 16:59:10 27° NE 17:01:19 52° E 17:05:33 10° S
Cosmos 1633 Rocket 3.5 16:57:20 10° NNW 17:01:42 64° W 17:06:02 10° S
Cosmos 1151 Rocket 3.4 16:57:33 10° SSW 17:01:52 67° WNW 17:06:14 10° N
Meteor 1-27 Rocket 4.1 16:57:00 10° SSE 17:02:02 38° E 17:04:01 28° NE
USA 306 2.8 16:58:07 10° WNW 17:02:23 75° NNE 17:03:51 39° ESE
Cosmos 1666 3.7 16:59:50 10° NNW 17:03:25 47° W 17:06:59 10° SSW
APEX 3.1 17:00:58 10° SSW 17:04:23 48° SE 17:04:23 48° SE
Landsat 5 4.0 17:05:03 36° ESE 17:05:03 36° ESE 17:08:14 10° SSE
Meteor 2-6 Rocket 4.1 16:59:12 10° S 17:04:54 85° E 17:10:29 10° NNE
SJ-11-01 4.2 17:01:35 10° SSE 17:06:17 70° ENE 17:11:01 10° N
Cosmos 2360 Rocket 2.5 17:01:01 10° NNW 17:06:25 42° NE 17:08:17 32° E
ISS -0.5 17:05:54 10° WSW 17:07:21 12° SW 17:08:48 10° SSW
YAOGAN 1 4.0 17:11:21 22° NNE 17:11:21 22° NNE 17:13:12 10° N
Cosmos 1900 4.3 17:04:29 10° SW 17:09:22 78° NW 17:11:53 29° NNE
Cosmos 2237 4.2 17:04:06 10° NNW 17:09:45 57° ENE 17:13:44 19° SE
Cosmos 1818 4.3 17:06:54 10° NW 17:12:15 54° WSW 17:17:32 10° SSE
CZ-2C R/B 3.8 17:15:55 10° SSW 17:17:45 12° S 17:19:13 11° SSE
Cosmos 2279 Rocket 4.4 17:11:49 10° SSW 17:17:58 65° WNW 17:24:09 10° N
Cosmos 1536 4.5 17:15:02 10° N 17:16:30 21° N 17:16:30 21° N
ATLAS 5 CENTAUR R/B 1.6 17:12:46 10° NW 17:19:15 85° NE 17:19:39 67° ESE
Meteor 2-15 4.3 17:14:09 10° S 17:20:15 87° E 17:26:23 10° N
Cosmos 2266 Rocket 4.0 17:14:23 10° N 17:20:51 87° E 17:27:16 10° S
ERBS 4.3 17:19:22 10° NW 17:20:46 19° NNW 17:20:46 19° NNW
USA 307 2.7 17:18:41 10° WNW 17:22:58 87° NNE 17:23:33 66° ESE
CZ-4C R/B 4.1 17:16:24 10° NW 17:23:18 44° WSW 17:31:11 10° S
SL-08 RB Rocket 3.6 17:20:22 10° SSE 17:24:58 73° ENE 17:29:33 10° N
SKYMED 3 4.5 17:23:34 33° NNE 17:25:29 89° WNW 17:29:50 10° SSW
Lacrosse 5 rocket 2.8 17:22:09 10° WNW 17:25:45 34° SW 17:28:57 13° SSE
NOSS 3-4 (A) 4.2 17:21:10 10° NW 17:27:28 41° NNE 17:28:52 38° ENE
NOSS 3-4 (C) 4.2 17:21:16 10° NW 17:27:34 41° NNE 17:28:56 37° ENE
Cosmos 1933 Rocket 3.4 17:24:29 10° N 17:28:51 88° W 17:33:11 10° S
Cosmos 2322 Rocket 2.1 17:23:29 10° NNW 17:29:14 88° ENE 17:34:57 10° SSE
USA 234 3.7 17:23:03 10° SE 17:29:32 62° SW 17:36:00 10° WNW
ATLAS 2AS CENTAUR R/B 3.7 17:23:34 10° NW 17:30:01 29° NNE 17:31:18 28° NE
COSMOS 2428 4.0 17:25:26 10° NNW 17:28:43 23° NNE 17:28:43 23° NNE
NOAA 15 4.5 17:28:38 10° SSE 17:33:52 67° ENE 17:39:06 10° N
Cosmos 1470 Rocket 4.5 17:30:30 10° NNW 17:34:50 49° W 17:39:09 10° SSW
Cosmos 1544 3.8 17:31:26 10° NNW 17:34:59 52° W 17:38:30 10° S
Cosmos 1125 Rocket 4.1 17:31:54 10° NNW 17:37:03 57° WSW 17:42:12 10° S
Cosmos 1867 3.5 17:32:49 10° SSW 17:38:11 60° ESE 17:38:27 59° ESE
NOSS 3-3 (A) 4.1 17:33:01 10° SSW 17:38:22 46° ESE 17:38:22 46° ESE
NOSS 3-3 (C) 4.1 17:33:09 10° S 17:38:27 46° ESE 17:38:27 46° ESE
H-2A R/B 3.3 17:33:58 10° SSW 17:38:45 39° W 17:43:27 10° NNW
X-37B 3.1 17:36:55 10° SW 17:37:49 16° SW 17:37:49 16° SW
DEBRIS 4.4 17:37:13 10° SSW 17:38:35 24° S 17:38:35 24° S
Okean O Rocket 2.2 17:36:02 10° S 17:40:25 58° W 17:44:51 10° NNW
GEOS 3 Rocket 3.8 17:41:55 53° NNE 17:41:55 53° NNE 17:46:46 10° NW
Meteor 1-11 Rocket 4.0 17:36:27 10° NNW 17:42:05 70° W 17:47:48 10° S
Meteor 1-10 Rocket 4.5 17:36:22 10° SSW 17:42:05 68° WNW 17:47:11 13° N
USA 32 3.9 17:38:41 10° S 17:43:54 88° E 17:46:22 33° N
ATLAS CENTAUR R/B 4.1 17:43:24 10° NNW 17:44:13 11° N 17:44:13 11° N
USA 308 3.1 17:41:23 10° WNW 17:45:21 68° WSW 17:45:21 68° WSW
SKYMED 2 4.3 17:47:47 33° NNW 17:49:23 52° WNW 17:53:36 10° SSW
SL-16 R/B 3.0 17:44:13 10° NW 17:49:41 51° WSW 17:55:09 10° S
ARGOS 3.9 17:45:16 10° S 17:50:32 53° W 17:55:50 10° NNW
Cosmos 2237 Rocket 4.3 17:47:56 10° N 17:49:04 13° N 17:49:04 13° N
Cosmos 2082 Rocket 3.9 17:48:39 10° WSW 17:53:27 28° NW 17:56:57 16° N
Cosmos 1241 Rocket 4.3 17:55:22 10° SSW 18:01:44 77° SE 18:01:58 75° E
COSMOS 2455 4.5 17:57:10 10° W 18:02:14 27° NW 18:04:54 20° N
USA 305 4.2 18:05:47 10° WNW 18:08:52 37° WSW 18:08:52 37° WSW
Cosmos 2333 Rocket 2.9 18:04:08 10° NNW 18:08:05 43° N 18:08:05 43° N
CZ-2C R/B 3.7 18:06:50 17° N 18:10:22 41° WNW 18:15:11 10° SW
Cosmos 2219 Rocket 3.4 18:12:05 10° NNW 18:15:05 31° N 18:15:05 31° N
Aureole 3 Rocket 4.3 18:13:46 10° SSW 18:18:25 55° WNW 18:25:01 10° N
USA 267 3.7 18:37:47 51° NNW 18:37:48 51° NNW 18:44:04 10° W
Cosmos 2360 Rocket 3.4 18:45:12 10° NW 18:50:08 37° W 18:50:08 37° W
ATLAS 2AS CENTAUR R/B 4.1 19:15:02 10° NW 19:18:44 31° NNW 19:18:44 31° NNW
